• Em Portugal
  • Lista de países
  • Para 7 dias
  • Temperatura da água
  • Mapas de satélite
  • Mapa do tempo
  • Widgets de tempo
  • user-avatar
    Iniciar Sessão

    Previsão horária em Shusha

    Hoje, 14 Agosto, Terça-feira

    Tempo Temperatura Precipitação Vento Pressão Humidade
    00:00 +17°C° 0 mm 2 m/s 659 mmHg 71%
    01:00 +18°C° 0 mm 1 m/s 659 mmHg 71%
    02:00 +18°C° 0 mm 1 m/s 659 mmHg 72%
    03:00 +16°C° 0 mm 1 m/s 659 mmHg 75%
    04:00 +18°C° 0 mm 1 m/s 659 mmHg 73%
    05:00 +18°C° 0 mm 1 m/s 660 mmHg 72%
    06:00 +18°C° 0 mm 1 m/s 660 mmHg 70%
    07:00 +18°C° 0 mm 2 m/s 660 mmHg 66%
    08:00 +19°C° 0 mm 3 m/s 660 mmHg 61%
    09:00 +20°C° 0 mm 3 m/s 661 mmHg 57%
    10:00 +21°C° 0 mm 3 m/s 661 mmHg 53%
    11:00 +22°C° 0 mm 4 m/s 661 mmHg 50%
    12:00 +23°C° 0 mm 4 m/s 661 mmHg 46%
    13:00 +23°C° 0 mm 4 m/s 661 mmHg 47%
    14:00 +23°C° 0 mm 4 m/s 661 mmHg 47%
    15:00 +23°C° 0 mm 4 m/s 660 mmHg 47%
    16:00 +24°C° 0 mm 3 m/s 660 mmHg 49%
    17:00 +22°C° 0 mm 3 m/s 660 mmHg 52%
    18:00 +21°C° 0 mm 3 m/s 660 mmHg 54%
    19:00 +20°C° 0 mm 3 m/s 660 mmHg 59%
    20:00 +19°C° 0 mm 2 m/s 660 mmHg 64%
    21:00 +18°C° 0 mm 2 m/s 660 mmHg 69%
    22:00 +17°C° 0 mm 2 m/s 660 mmHg 71%
    23:00 +17°C° 0 mm 2 m/s 660 mmHg 72%

    Amanhã, 15 Agosto, Quarta-feira

    Tempo Temperatura Precipitação Vento Pressão Humidade
    00:00 +17°C° 0 mm 2 m/s 660 mmHg 74%
    01:00 +16°C° 0 mm 2 m/s 660 mmHg 73%
    02:00 +16°C° 0 mm 2 m/s 660 mmHg 73%
    03:00 +16°C° 0 mm 2 m/s 660 mmHg 73%
    04:00 +16°C° 0 mm 2 m/s 660 mmHg 70%
    05:00 +16°C° 0 mm 2 m/s 660 mmHg 68%
    06:00 +16°C° 0 mm 2 m/s 660 mmHg 65%
    07:00 +18°C° 0 mm 2 m/s 661 mmHg 58%
    08:00 +20°C° 0 mm 2 m/s 661 mmHg 51%
    09:00 +22°C° 0 mm 3 m/s 662 mmHg 44%
    10:00 +24°C° 0 mm 3 m/s 662 mmHg 41%
    11:00 +25°C° 0 mm 4 m/s 662 mmHg 38%
    12:00 +26°C° 0 mm 4 m/s 662 mmHg 35%
    13:00 +26°C° 0 mm 4 m/s 662 mmHg 35%
    14:00 +27°C° 0 mm 4 m/s 662 mmHg 35%
    15:00 +27°C° 0 mm 4 m/s 661 mmHg 35%
    16:00 +26°C° 0 mm 4 m/s 661 mmHg 38%
    17:00 +25°C° 0 mm 4 m/s 661 mmHg 40%
    18:00 +23°C° 0 mm 4 m/s 661 mmHg 43%
    19:00 +22°C° 0 mm 3 m/s 661 mmHg 49%
    20:00 +20°C° 0 mm 2 m/s 661 mmHg 55%
    21:00 +18°C° 0 mm 2 m/s 661 mmHg 60%
    22:00 +18°C° 0 mm 2 m/s 661 mmHg 62%
    23:00 +18°C° 0 mm 2 m/s 661 mmHg 63%

    Depois de amanhã, 16 Agosto, Quinta-feira

    Tempo Temperatura Precipitação Vento Pressão Humidade
    00:00 +17°C° 0 mm 2 m/s 661 mmHg 64%
    01:00 +17°C° 0 mm 2 m/s 661 mmHg 64%
    02:00 +17°C° 0 mm 2 m/s 661 mmHg 64%
    03:00 +17°C° 0 mm 2 m/s 661 mmHg 64%
    04:00 +18°C° 0 mm 1 m/s 661 mmHg 62%
    05:00 +18°C° 0 mm 1 m/s 661 mmHg 60%
    06:00 +18°C° 0 mm 1 m/s 661 mmHg 58%
    07:00 +19°C° 0 mm 2 m/s 661 mmHg 52%
    08:00 +21°C° 0 mm 2 m/s 662 mmHg 46%
    09:00 +24°C° 0 mm 2 m/s 662 mmHg 39%
    10:00 +26°C° 0 mm 3 m/s 662 mmHg 37%
    11:00 +27°C° 0 mm 3 m/s 662 mmHg 34%
    12:00 +28°C° 0 mm 3 m/s 662 mmHg 32%
    13:00 +28°C° 0 mm 3 m/s 662 mmHg 32%
    14:00 +29°C° 0 mm 3 m/s 662 mmHg 31%
    15:00 +29°C° 0 mm 3 m/s 661 mmHg 31%
    16:00 +29°C° 0 mm 3 m/s 661 mmHg 33%
    17:00 +28°C° 0 mm 3 m/s 661 mmHg 36%
    18:00 +27°C° 0 mm 2 m/s 661 mmHg 39%
    19:00 +25°C° 0 mm 2 m/s 661 mmHg 44%
    20:00 +23°C° 0 mm 2 m/s 661 mmHg 48%
    21:00 +22°C° 0 mm 1 m/s 660 mmHg 53%
    22:00 +21°C° 0 mm 1 m/s 660 mmHg 53%
    23:00 +21°C° 0 mm 1 m/s 660 mmHg 54%

    17 Agosto, Sexta-feira

    Tempo Temperatura Precipitação Vento Pressão Humidade
    00:00 +20°C° 0 mm 2 m/s 660 mmHg 54%
    01:00 +20°C° 0 mm 1 m/s 660 mmHg 54%
    02:00 +20°C° 0 mm 1 m/s 659 mmHg 55%
    03:00 +20°C° 0 mm 1 m/s 659 mmHg 55%
    04:00 +20°C° 0 mm 1 m/s 659 mmHg 54%
    05:00 +20°C° 0 mm 1 m/s 659 mmHg 53%
    06:00 +20°C° 0 mm 1 m/s 659 mmHg 53%
    07:00 +23°C° 0 mm 2 m/s 660 mmHg 47%
    08:00 +25°C° 0 mm 2 m/s 660 mmHg 41%
    09:00 +27°C° 0 mm 2 m/s 661 mmHg 35%
    10:00 +28°C° 0 mm 2 m/s 661 mmHg 33%
    11:00 +30°C° 0 mm 3 m/s 660 mmHg 30%
    12:00 +31°C° 0 mm 3 m/s 660 mmHg 28%
    13:00 +31°C° 0 mm 3 m/s 660 mmHg 27%
    14:00 +33°C° 0 mm 3 m/s 660 mmHg 27%
    15:00 +33°C° 0 mm 3 m/s 659 mmHg 26%
    16:00 +31°C° 0 mm 3 m/s 659 mmHg 29%
    17:00 +30°C° 0 mm 3 m/s 659 mmHg 31%
    18:00 +29°C° 0 mm 2 m/s 658 mmHg 34%
    19:00 +27°C° 0 mm 2 m/s 658 mmHg 38%
    20:00 +25°C° 0 mm 2 m/s 658 mmHg 43%
    21:00 +23°C° 0 mm 1 m/s 658 mmHg 47%
    22:00 +23°C° 0 mm 1 m/s 658 mmHg 48%
    23:00 +23°C° 0 mm 1 m/s 658 mmHg 49%

    18 Agosto, Sábado

    Tempo Temperatura Precipitação Vento Pressão Humidade
    00:00 +21°C° 0 mm 2 m/s 657 mmHg 50%
    01:00 +22°C° 0 mm 1 m/s 657 mmHg 51%
    02:00 +21°C° 0 mm 1 m/s 657 mmHg 52%
    03:00 +21°C° 0 mm 1 m/s 657 mmHg 53%
    04:00 +21°C° 0 mm 1 m/s 657 mmHg 53%
    05:00 +21°C° 0 mm 1 m/s 657 mmHg 53%
    06:00 +21°C° 0 mm 1 m/s 657 mmHg 53%
    07:00 +23°C° 0 mm 2 m/s 658 mmHg 46%
    08:00 +25°C° 0 mm 2 m/s 658 mmHg 40%
    09:00 +27°C° 0 mm 2 m/s 658 mmHg 33%
    10:00 +28°C° 0 mm 3 m/s 658 mmHg 31%
    11:00 +29°C° 0 mm 3 m/s 658 mmHg 29%
    12:00 +31°C° 0 mm 3 m/s 658 mmHg 27%
    13:00 +31°C° 0 mm 3 m/s 658 mmHg 27%
    14:00 +32°C° 0 mm 4 m/s 657 mmHg 27%
    15:00 +32°C° 0 mm 4 m/s 657 mmHg 27%
    16:00 +30°C° 0 mm 4 m/s 657 mmHg 30%
    17:00 +29°C° 0 mm 4 m/s 657 mmHg 33%
    18:00 +28°C° 0 mm 3 m/s 657 mmHg 35%
    19:00 +26°C° 0 mm 3 m/s 657 mmHg 40%
    20:00 +25°C° 0 mm 3 m/s 657 mmHg 45%
    21:00 +23°C° 0 mm 2 m/s 657 mmHg 50%
    22:00 +21°C° 0 mm 2 m/s 657 mmHg 51%
    23:00 +21°C° 0 mm 2 m/s 657 mmHg 52%

    19 Agosto, Domingo

    Tempo Temperatura Precipitação Vento Pressão Humidade
    00:00 +21°C° 0 mm 2 m/s 657 mmHg 54%
    01:00 +20°C° 0 mm 2 m/s 657 mmHg 55%
    02:00 +20°C° 0 mm 2 m/s 657 mmHg 56%
    03:00 +19°C° 0 mm 2 m/s 657 mmHg 57%
    04:00 +20°C° 0 mm 2 m/s 658 mmHg 56%
    05:00 +20°C° 0 mm 2 m/s 658 mmHg 55%
    06:00 +20°C° 0 mm 2 m/s 658 mmHg 55%
    07:00 +23°C° 0 mm 2 m/s 659 mmHg 49%
    08:00 +25°C° 0 mm 3 m/s 659 mmHg 44%
    09:00 +26°C° 0 mm 3 m/s 660 mmHg 39%
    10:00 +27°C° 0 mm 4 m/s 659 mmHg 36%
    11:00 +28°C° 0 mm 5 m/s 659 mmHg 33%
    12:00 +29°C° 0 mm 5 m/s 659 mmHg 31%
    13:00 +29°C° 0 mm 6 m/s 659 mmHg 30%
    14:00 +29°C° 0 mm 6 m/s 659 mmHg 29%
    15:00 +29°C° 0 mm 6 m/s 659 mmHg 28%
    16:00 +28°C° 0 mm 6 m/s 658 mmHg 31%
    17:00 +26°C° 0 mm 6 m/s 658 mmHg 35%
    18:00 +24°C° 0 mm 6 m/s 658 mmHg 38%
    19:00 +22°C° 0 mm 5 m/s 658 mmHg 44%
    20:00 +20°C° 0 mm 4 m/s 658 mmHg 50%
    21:00 +19°C° 0 mm 3 m/s 658 mmHg 56%
    22:00 +18°C° 0 mm 3 m/s 658 mmHg 59%
    23:00 +18°C° 0 mm 2 m/s 658 mmHg 62%
    Mostrar mais